This is the latest recevied weather packets stored in our database for station/object HP1MRA-15. If no packets are shown the sender has not sent any weather packets the latest 10 day(s).
| Time | Temp. | Humidity | Pressure | Rain* | Wind** | Luminosity | Snow |
|---|---|---|---|---|---|---|---|
| 1778163290 | 33.33° C | 67% | 1004 hPa | 0 mm | - | - | - |
| 1778162990 | 33.33° C | 65% | 1003.9 hPa | 0 mm | - | - | - |
| 1778162690 | 33.89° C | 68% | 1003.8 hPa | 0 mm | - | - | - |
| 1778162390 | 33.89° C | 69% | 1003.7 hPa | 0 mm | - | - | - |
| 1778162090 | 33.33° C | 72% | 1003.7 hPa | 0 mm | - | - | - |
| 1778161789 | 33.33° C | 73% | 1003.6 hPa | 0 mm | - | - | - |
| 1778161490 | 32.78° C | 75% | 1003.7 hPa | 0 mm | - | - | - |
| 1778161190 | 31.67° C | 76% | 1003.6 hPa | 0 mm | - | - | - |
| 1778160889 | 31.11° C | 77% | 1003.5 hPa | 0 mm | - | - | - |
| 1778160590 | 31.11° C | 77% | 1003.4 hPa | 0 mm | - | - | - |
| 1778160289 | 30.56° C | 78% | 1003.4 hPa | 0 mm | - | - | - |
| 1778159990 | 30.56° C | 78% | 1003.5 hPa | 0 mm | - | - | - |
| 1778159690 | 30.56° C | 80% | 1003.3 hPa | 0 mm | - | - | - |
| 1778159389 | 30° C | 81% | 1003.4 hPa | 0 mm | - | - | - |
| 1778159090 | 30° C | 82% | 1003.5 hPa | 0 mm | - | - | - |
| 1778158789 | 29.44° C | 82% | 1003.6 hPa | 0 mm | - | - | - |
| 1778158489 | 29.44° C | 82% | 1003.6 hPa | 0 mm | - | - | - |
| 1778158189 | 28.89° C | 83% | 1003.6 hPa | 0 mm | - | - | - |
| 1778157889 | 28.89° C | 83% | 1003.5 hPa | 0 mm | - | - | - |
| 1778157590 | 28.33° C | 84% | 1003.3 hPa | 0 mm | - | - | - |
| 1778157289 | 28.33° C | 84% | 1003.3 hPa | 0 mm | - | - | - |
| 1778156989 | 27.78° C | 83% | 1003.3 hPa | 0 mm | - | - | - |
| 1778156689 | 28.33° C | 83% | 1003.3 hPa | 0 mm | - | - | - |
| 1778156389 | 28.33° C | 83% | 1003.4 hPa | 0 mm | - | - | - |
| 1778156090 | 28.33° C | 83% | 1003.3 hPa | 0 mm | - | - | - |
* Rain latest hour (hover to see other rain measurements)
** Current wind speed in m/s (hover to see current wind gust speed)